Portada
METAR-TAF:

METAR-TAF

Aeropuertos :

Aeropuerto de Ísafjörður

Ísafjörður, Islandia

latitud: 66-03-29N, longitud: 23-08-07W, altitud: 2 m

Observación

El informe se hizo hace 7 minutos, a las 16:00 UTC
Viento 5 kt con dirección variable
Temperatura 5°C
Humedad 70%
Presión 992 hPa
Visibilidad 10 km o más
Escasas nubes a una altura de 2500 ft
Cielo nuboso a una altura de 4000 ft

METAR: BIIS 041600Z VRB05KT 9999 FEW025 BKN040 05/00 Q0992 RMK ARNARNES 150DGR 6KT

Hora: 16:07 (16:07 UTC)

Pronóstico

El informe se hizo hace 3 horas y 3 minutos, a las 13:04 UTC
Pronóstico válido del 04 a las 14 UTC al 04 a las 19 UTC
Viento 10 kt del sureste
Visibilidad 10 km o más
Escasas nubes a una altura de 2500 ft
Cielo nuboso a una altura de 4000 ft
Probabilidad 40% :
Temporalmente
del 04 a las 15 UTC al 04 a las 18 UTC
Viento 20 kt del sureste

TAF: BIIS 041304Z 0414/0419 14010KT 9999 FEW025 BKN040 PROB40 TEMPO 0415/0418 14020KT

Observaciones y pronósticos meteorológicos de más de 4000 aeropuertos (mensajes METAR y TAF).

Los puntos amarillos y rojos representan las estaciones disponibles.

Ponga el ratón en el punto deseado para ver el nombre de la estación.

Haga clic para ver las observaciones y los pronósticos meteorológicos.

Para cambiar el mapa : haga clic en los botones verdes con una cruz de color negro para hacer un zoom, en el botón verde con un guión para alejar o en las flechas verdes para mapas adyacentes.


METAR-TAF: